timestamp,wind_dir_avg,wind_spd_max_dir,wind_spd_avg,wind_spd_gust,battery_voltage,lat,long
2019-01-24 00:00:00+00:00,287.0,288.0,4.79,5.68,,47.59359,-54.27349
2019-01-24 00:10:00+00:00,290.0,287.0,5.47,5.97,,47.59359,-54.27349
2019-01-24 00:20:00+00:00,282.0,277.0,5.16,5.75,,47.59359,-54.27349
2019-01-24 00:30:00+00:00,267.0,269.0,5.55,5.96,,47.59359,-54.27349
2019-01-24 00:40:00+00:00,263.0,267.0,4.18,5.06,,47.59359,-54.27349
2019-01-24 00:50:00+00:00,262.0,261.0,3.87,4.32,,47.59359,-54.27349
2019-01-24 01:00:00+00:00,272.0,268.0,3.18,3.6,,47.59359,-54.27349
2019-01-24 01:10:00+00:00,269.0,272.0,3.82,4.24,,47.59359,-54.27349
2019-01-24 01:20:00+00:00,264.0,267.0,4.18,4.96,,47.59359,-54.27349
2019-01-24 01:30:00+00:00,282.0,284.0,3.58,4.1,,47.59359,-54.27349
2019-01-24 01:40:00+00:00,283.0,287.0,3.7,4.41,,47.59359,-54.27349
2019-01-24 01:50:00+00:00,301.0,299.0,4.44,4.96,,47.59359,-54.27349
2019-01-24 02:00:00+00:00,274.0,272.0,4.8,6.06,,47.59359,-54.27349
2019-01-24 02:10:00+00:00,297.0,298.0,3.58,4.36,,47.59359,-54.27349
2019-01-24 02:20:00+00:00,279.0,278.0,3.34,3.98,,47.59359,-54.27349
2019-01-24 02:30:00+00:00,271.0,273.0,3.3,3.89,,47.59359,-54.27349
2019-01-24 02:40:00+00:00,260.0,262.0,3.95,4.53,,47.59359,-54.27349
2019-01-24 02:50:00+00:00,271.0,268.0,2.62,3.0,,47.59359,-54.27349
2019-01-24 03:00:00+00:00,269.0,266.0,3.85,4.87,,47.59359,-54.27349
2019-01-24 03:10:00+00:00,272.0,273.0,4.51,5.12,,47.59359,-54.27349
2019-01-24 03:20:00+00:00,271.0,270.0,5.2,5.87,,47.59359,-54.27349
2019-01-24 03:30:00+00:00,268.0,270.0,5.69,6.57,,47.59359,-54.27349
2019-01-24 03:40:00+00:00,280.0,275.0,5.63,6.43,,47.59359,-54.27349
2019-01-24 03:50:00+00:00,288.0,289.0,6.24,6.84,,47.59359,-54.27349
2019-01-24 04:00:00+00:00,271.0,270.0,5.6,6.52,,47.59359,-54.27349
2019-01-24 04:10:00+00:00,269.0,267.0,5.8,6.3,,47.59359,-54.27349
2019-01-24 04:20:00+00:00,286.0,289.0,6.4,7.43,,47.59359,-54.27349
2019-01-24 04:30:00+00:00,264.0,267.0,5.46,6.31,,47.59359,-54.27349
2019-01-24 04:40:00+00:00,265.0,258.0,4.1,4.93,,47.59359,-54.27349
2019-01-24 04:50:00+00:00,267.0,269.0,4.03,4.75,,47.59359,-54.27349
2019-01-24 05:00:00+00:00,261.0,262.0,3.3,3.85,,47.59359,-54.27349
2019-01-24 05:10:00+00:00,250.0,235.0,3.12,3.49,,47.59359,-54.27349
2019-01-24 05:20:00+00:00,257.0,255.0,4.68,5.37,,47.59359,-54.27349
2019-01-24 05:30:00+00:00,254.0,250.0,3.24,3.6,,47.59359,-54.27349
2019-01-24 05:40:00+00:00,256.0,255.0,3.29,4.05,,47.59359,-54.27349
2019-01-24 05:50:00+00:00,265.0,266.0,3.2,3.64,,47.59359,-54.27349
2019-01-24 06:00:00+00:00,265.0,269.0,6.15,6.98,,47.59359,-54.27349
2019-01-24 06:10:00+00:00,269.0,267.0,6.4,7.09,,47.59359,-54.27349
2019-01-24 06:20:00+00:00,262.0,263.0,6.61,7.35,,47.59359,-54.27349
2019-01-24 06:30:00+00:00,264.0,259.0,5.64,6.77,,47.59359,-54.27349
2019-01-24 06:40:00+00:00,264.0,265.0,4.68,5.67,,47.59359,-54.27349
2019-01-24 06:50:00+00:00,260.0,258.0,4.66,5.42,,47.59359,-54.27349
2019-01-24 07:00:00+00:00,262.0,257.0,5.42,6.16,,47.59359,-54.27349
2019-01-24 07:10:00+00:00,258.0,256.0,2.93,3.33,,47.59359,-54.27349
2019-01-24 07:20:00+00:00,265.0,266.0,3.45,4.23,,47.59359,-54.27349
2019-01-24 07:30:00+00:00,250.0,256.0,4.5,6.68,,47.59359,-54.27349
2019-01-24 07:40:00+00:00,255.0,255.0,4.85,5.48,,47.59359,-54.27349
2019-01-24 07:50:00+00:00,246.0,241.0,5.31,6.05,,47.59359,-54.27349
2019-01-24 08:00:00+00:00,250.0,255.0,5.74,6.51,,47.59359,-54.27349
2019-01-24 08:10:00+00:00,266.0,265.0,6.75,7.53,,47.59359,-54.27349
2019-01-24 08:20:00+00:00,250.0,250.0,4.47,5.94,,47.59359,-54.27349
2019-01-24 08:30:00+00:00,264.0,270.0,5.9,6.78,,47.59359,-54.27349
2019-01-24 08:40:00+00:00,266.0,266.0,5.22,5.75,,47.59359,-54.27349
2019-01-24 08:50:00+00:00,268.0,266.0,3.97,4.78,,47.59359,-54.27349
2019-01-24 09:00:00+00:00,261.0,262.0,6.11,6.62,,47.59359,-54.27349
2019-01-24 09:10:00+00:00,263.0,263.0,5.69,6.38,,47.59359,-54.27349
2019-01-24 09:20:00+00:00,253.0,254.0,5.01,5.68,,47.59359,-54.27349
2019-01-24 09:30:00+00:00,253.0,245.0,5.32,6.08,,47.59359,-54.27349
2019-01-24 09:40:00+00:00,258.0,252.0,5.35,6.32,,47.59359,-54.27349
2019-01-24 09:50:00+00:00,271.0,273.0,6.68,7.16,,47.59359,-54.27349
2019-01-24 10:00:00+00:00,269.0,264.0,6.19,6.63,,47.59359,-54.27349
2019-01-24 10:10:00+00:00,265.0,266.0,6.5,7.3,,47.59359,-54.27349
2019-01-24 10:20:00+00:00,271.0,271.0,4.99,6.21,,47.59359,-54.27349
2019-01-24 10:30:00+00:00,260.0,256.0,4.93,5.67,,47.59359,-54.27349
2019-01-24 10:40:00+00:00,254.0,262.0,4.85,5.48,,47.59359,-54.27349
2019-01-24 10:50:00+00:00,246.0,240.0,3.8,4.3,,47.59359,-54.27349
2019-01-24 11:00:00+00:00,247.0,254.0,4.12,4.75,,47.59359,-54.27349
2019-01-24 11:10:00+00:00,236.0,237.0,4.52,4.97,,47.59359,-54.27349
2019-01-24 11:20:00+00:00,234.0,235.0,3.68,4.0,,47.59359,-54.27349
2019-01-24 11:30:00+00:00,225.0,232.0,3.68,4.08,,47.59359,-54.27349
2019-01-24 11:40:00+00:00,226.0,229.0,3.68,4.14,,47.59359,-54.27349
2019-01-24 11:50:00+00:00,225.0,221.0,2.49,3.05,,47.59359,-54.27349
2019-01-24 12:00:00+00:00,208.0,212.0,2.39,2.83,,47.59359,-54.27349
2019-01-24 12:10:00+00:00,211.0,214.0,2.96,3.4,,47.59359,-54.27349
2019-01-24 12:20:00+00:00,214.0,213.0,2.15,2.52,,47.59359,-54.27349
2019-01-24 12:30:00+00:00,195.0,193.0,2.83,3.8,,47.59359,-54.27349
2019-01-24 12:40:00+00:00,204.0,201.0,3.86,4.65,,47.59359,-54.27349
2019-01-24 12:50:00+00:00,174.0,175.0,4.3,4.78,,47.59359,-54.27349
2019-01-24 13:00:00+00:00,185.0,186.0,3.57,4.06,,47.59359,-54.27349
2019-01-24 13:10:00+00:00,172.0,169.0,3.05,3.3,,47.59359,-54.27349
2019-01-24 13:20:00+00:00,175.0,175.0,2.88,3.21,,47.59359,-54.27349
2019-01-24 13:30:00+00:00,170.0,169.0,3.15,3.47,,47.59359,-54.27349
2019-01-24 13:40:00+00:00,155.0,156.0,3.54,4.12,,47.59359,-54.27349
2019-01-24 13:50:00+00:00,171.0,172.0,4.59,5.03,,47.59359,-54.27349
2019-01-24 14:00:00+00:00,174.0,176.0,3.3,3.97,,47.59359,-54.27349
2019-01-24 14:10:00+00:00,181.0,178.0,5.24,5.96,,47.59359,-54.27349
2019-01-24 14:20:00+00:00,174.0,174.0,5.11,5.6,,47.59359,-54.27349
2019-01-24 14:30:00+00:00,171.0,177.0,6.52,7.54,,47.59359,-54.27349
2019-01-24 14:40:00+00:00,174.0,176.0,6.42,7.49,,47.59359,-54.27349
2019-01-24 14:50:00+00:00,177.0,177.0,6.39,7.25,,47.59359,-54.27349
2019-01-24 15:00:00+00:00,174.0,170.0,6.92,7.67,,47.59359,-54.27349
2019-01-24 15:10:00+00:00,172.0,169.0,6.62,7.29,,47.59359,-54.27349
2019-01-24 15:20:00+00:00,169.0,166.0,6.68,7.7,,47.59359,-54.27349
2019-01-24 15:30:00+00:00,175.0,176.0,6.63,7.81,,47.59359,-54.27349
2019-01-24 15:40:00+00:00,181.0,182.0,6.89,7.74,,47.59359,-54.27349
2019-01-24 15:50:00+00:00,181.0,181.0,6.49,7.02,,47.59359,-54.27349
2019-01-24 16:00:00+00:00,185.0,186.0,5.98,7.23,,47.59359,-54.27349
2019-01-24 16:10:00+00:00,180.0,181.0,5.67,6.28,,47.59359,-54.27349
2019-01-24 16:20:00+00:00,183.0,186.0,6.26,7.2,,47.59359,-54.27349
2019-01-24 16:30:00+00:00,175.0,174.0,6.82,7.84,,47.59359,-54.27349
2019-01-24 16:40:00+00:00,176.0,173.0,6.84,7.74,,47.59359,-54.27349
2019-01-24 16:50:00+00:00,174.0,173.0,6.28,7.02,,47.59359,-54.27349
2019-01-24 17:00:00+00:00,175.0,177.0,7.39,8.35,,47.59359,-54.27349
2019-01-24 17:10:00+00:00,176.0,176.0,6.98,7.61,,47.59359,-54.27349
2019-01-24 17:20:00+00:00,176.0,176.0,6.27,6.69,,47.59359,-54.27349
2019-01-24 17:30:00+00:00,178.0,180.0,6.5,7.2,,47.59359,-54.27349
2019-01-24 17:40:00+00:00,179.0,179.0,6.74,7.4,,47.59359,-54.27349
2019-01-24 17:50:00+00:00,180.0,186.0,6.35,6.81,,47.59359,-54.27349
2019-01-24 18:00:00+00:00,176.0,174.0,6.04,6.98,,47.59359,-54.27349
2019-01-24 18:10:00+00:00,178.0,178.0,6.03,8.09,,47.59359,-54.27349
2019-01-24 18:20:00+00:00,176.0,175.0,6.79,7.84,,47.59359,-54.27349
2019-01-24 18:30:00+00:00,178.0,175.0,5.83,6.38,,47.59359,-54.27349
2019-01-24 18:40:00+00:00,176.0,176.0,6.59,7.66,,47.59359,-54.27349
2019-01-24 18:50:00+00:00,168.0,168.0,5.63,6.24,,47.59359,-54.27349
2019-01-24 19:00:00+00:00,165.0,165.0,5.19,5.98,,47.59359,-54.27349
2019-01-24 19:10:00+00:00,163.0,161.0,5.55,6.24,,47.59359,-54.27349
2019-01-24 19:20:00+00:00,146.0,148.0,4.12,4.79,,47.59359,-54.27349
2019-01-24 19:30:00+00:00,161.0,163.0,5.22,6.11,,47.59359,-54.27349
2019-01-24 19:40:00+00:00,161.0,164.0,4.68,5.24,,47.59359,-54.27349
2019-01-24 19:50:00+00:00,170.0,173.0,3.45,4.34,,47.59359,-54.27349
2019-01-24 20:00:00+00:00,168.0,173.0,3.55,3.98,,47.59359,-54.27349
2019-01-24 20:10:00+00:00,166.0,170.0,4.25,5.34,,47.59359,-54.27349
2019-01-24 20:20:00+00:00,160.0,166.0,4.76,5.31,,47.59359,-54.27349
2019-01-24 20:30:00+00:00,176.0,179.0,3.58,3.97,,47.59359,-54.27349
2019-01-24 20:40:00+00:00,161.0,155.0,3.37,3.78,,47.59359,-54.27349
2019-01-24 20:50:00+00:00,168.0,171.0,4.28,5.33,,47.59359,-54.27349
2019-01-24 21:00:00+00:00,183.0,182.0,5.43,7.23,,47.59359,-54.27349
2019-01-24 21:10:00+00:00,167.0,160.0,5.71,7.18,,47.59359,-54.27349
2019-01-24 21:20:00+00:00,181.0,179.0,4.45,5.22,,47.59359,-54.27349
2019-01-24 21:30:00+00:00,189.0,191.0,5.08,5.92,,47.59359,-54.27349
2019-01-24 21:40:00+00:00,177.0,187.0,4.15,5.04,,47.59359,-54.27349
2019-01-24 21:50:00+00:00,167.0,162.0,4.85,5.53,,47.59359,-54.27349
2019-01-24 22:00:00+00:00,178.0,178.0,3.5,4.12,,47.59359,-54.27349
2019-01-24 22:10:00+00:00,187.0,191.0,3.48,3.93,,47.59359,-54.27349
2019-01-24 22:20:00+00:00,181.0,180.0,3.87,4.64,,47.59359,-54.27349
2019-01-24 22:30:00+00:00,178.0,195.0,3.36,3.96,,47.59359,-54.27349
2019-01-24 22:40:00+00:00,180.0,177.0,3.16,3.68,,47.59359,-54.27349
2019-01-24 22:50:00+00:00,175.0,176.0,3.18,3.47,,47.59359,-54.27349
2019-01-24 23:00:00+00:00,184.0,191.0,3.22,3.61,,47.59359,-54.27349
2019-01-24 23:10:00+00:00,184.0,185.0,2.1,2.5,,47.59359,-54.27349
2019-01-24 23:20:00+00:00,192.0,196.0,2.86,3.37,,47.59359,-54.27349
2019-01-24 23:30:00+00:00,184.0,183.0,3.72,4.41,,47.59359,-54.27349
2019-01-24 23:40:00+00:00,184.0,180.0,3.81,4.62,,47.59359,-54.27349
2019-01-24 23:50:00+00:00,183.0,181.0,4.19,4.64,,47.59359,-54.27349
